Regional Weather Roundup
Issued by NWS Huntsville, AL

Home | Current Version | Previous Version | Text Only | Print | Product List | Glossary On
Versions: 1 2 3 4 5 6 7 8 9 10 11 12 13 14 15 16 17 18 19 20 21 22 23 24 25 26 27 28 29 30 31 32 33 34 35 36 37 38 39 40 41 42 43 44 45 46 47 48 49 50
000
ASUS44 KHUN 171410
RWRHUN

WEATHER ROUNDUP FOR THE TENNESSEE VALLEY
NATIONAL WEATHER SERVICE HUNTSVILLE AL
900 AM CDT THU AUG 17 2017

ALZ001>004-171500-
NORTHWEST ALABAMA

CITY           SKY/WX    TMP DP  RH WIND       PRES   REMARKS
COURTLAND HCN    N/A     77 N/A N/A SW5         N/A
RUSSELLVILLE     N/A     77 N/A N/A MISG        N/A
SHOALS AIRPORT CLOUDY    79  74  84 SW10      30.07S
SHOALS TVA RES   N/A     77 N/A N/A MISG        N/A
$$

ALZ005>007-016-171500-
NORTH CENTRAL ALABAMA

CITY           SKY/WX    TMP DP  RH WIND       PRES   REMARKS
CULLMAN AG STN   N/A     79 N/A N/A SW3         N/A
DECATUR AP     CLOUDY    78  75  90 SW5       30.08R
HUNTSVILLE AP  PTSUNNY   81  76  84 SW8       30.09R
MERIDIANVILLE  PTSUNNY   79  72  78 SW3       30.09S
REDSTONE ARSN  PTSUNNY   79  74  86 SW7       30.08R
VINEMONT AP    FAIR      79  71  78 S5        30.13R
$$

ALZ008>010-171500-
NORTHEAST ALABAMA

CITY           SKY/WX    TMP DP  RH WIND       PRES   REMARKS
ALBERTVILLE    SUNNY     79  79 100 W7        30.11S
FORT PAYNE     PTSUNNY   77  70  78 SW3       30.10S
SCOTTSBORO AP  CLOUDY    81  75  83 SW6       30.10R
SCOTTSBORO HCN   N/A     79 N/A N/A MISG        N/A
$$

TNZ076-096-097-171500-
SOUTHEASTERN MIDDLE TENNESSEE

CITY           SKY/WX    TMP DP  RH WIND       PRES   REMARKS
TULLAHOMA      PTSUNNY   79  72  78 SW7       30.10R
WINCHESTER     PTSUNNY   79  72  78 W8        30.10R
$$

...SURROUNDING SITES...

CITY           SKY/WX    TMP DP  RH WIND       PRES   REMARKS
ATLANTA        MOSUNNY   83  73  72 NW8       30.11S
ANNISTON       MOSUNNY   80  74  81 W8        30.12R
BIRMINGHAM     MOSUNNY   82  72  71 W8        30.13S
CHATTANOOGA    MOSUNNY   82  72  71 SW5       30.08F
DALTON         NOT AVBL
GADSDEN        SUNNY     81  74  79 SW3       30.11S
GOLDEN TRNGL   MOSUNNY   81  70  69 W7        30.04R
HALEYVILLE     CLOUDY    76  74  93 SW8       30.12S
JACKSON TN     CLOUDY    78  77  96 SW9       30.02R
MEMPHIS        CLOUDY    80  75  84 SW10      30.02R
NASHVILLE      MOSUNNY   82  73  74 S6        30.03F
OXFORD MS        N/A    N/A N/A N/A MISG        N/A
ROME           SUNNY     82  76  81 CALM      30.08F
SAVANNAH       CLOUDY    77  75  94 SW13      30.04R
SELMER         CLOUDY    77  75  94 SW8G15    30.04R
TUPELO         CLOUDY    78  72  81 S7        30.06R
TUSCALOOSA     MOSUNNY   79  75  87 SW5       30.10R
$$

...GULF COAST WEATHER...

CITY           SKY/WX    TMP DP  RH WIND       PRES   REMARKS
GULFPORT       SUNNY     85  78  80 W5        30.09R HX  96
PASCAGOULA     SUNNY     86  76  71 VRB3      30.10R HX  96
MOBILE         MOSUNNY   84  75  74 VRB3      30.11S HX  92
GULF SHORES    SUNNY     84  81  89 CALM      30.10S HX  99
PENSACOLA      MOSUNNY   88  78  72 VRB3      30.10R HX 101
DESTIN         SUNNY     89  75  63 NW5       30.10S HX  99
PANAMA CITY    MOSUNNY   84  77  79 W8        30.11R HX  94
APPALACHICOLA  SUNNY     88  80  77 NW6       30.10S HX 104
$$




USA.gov is the U.S. government's official web portal to all federal, state and local government web resources and services.